Location: Cerda�ola
(41.4919°N, 2.1403°E)
Time: 19:46:50
(UTC+00:00)

Lacrosse 4 Rocket - Pass Details

Date: 15 August 2020
Orbit: 544 x 615 km, 68.0° (Epoch: 01 October)

Event Time Altitude Azimuth Distance (km) Brightness Sun altitude
Exits shadow 21:37:21 23° 35° (NE) 1,246 3.2 -26.3°
Drops below altitude 10° 21:38:58 10° 32° (NNE) 1,872 4.2 -26.4°
Sets 21:41:10 0° 30° (NNE) 2,761 5.2 -26.7°
